sat.trackr.live / text

‹ back to catalog

TAURUS-1 (JINNIUZUO 1)

NORAD 44530 · 2019-059C

PAYLOAD ACTIVE UNKNOWN

§ Identity

Operator
Country
PRC
Launch date
2019-09-12
Launch site
TAISC
Launch vehicle
Mass (kg)
RCS (m²)

External: N2YO · Heavens-Above · Gunter

§ Orbital elements

Epoch: 2026-09-20T04:04:10.789248Z

Period
97.76 min
Inclination
98.6507°
Eccentricity
0.0008667
Mean motion
14.72920933 rev/d
Perigee alt
645.7 km
Apogee alt
657.9 km
Semi-major
7,029.9 km
B*
3.8148e-4
RAAN
74.0102°
Arg perigee
20.1016°
Mean anomaly
340.0529°
Rev number
37,262

§ Raw data

TAURUS-1 (JINNIUZUO 1)1 44530U 19059C   26263.16956932  .00002390  00000+0  38148-3 0  99902 44530  98.6507  74.0102 0008667  20.1016 340.0529 14.72920933372627

JSON: /api/v1/satellites/44530 · /tle

For live sub-satellite position, see the globe view (requires WebGL).

§ Visibility from observer

Set your observer location to see the next 7 days of passes ≥ 10°. The values pass through the URL so the page stays shareable.

No JS? Fill the form by hand. The geolocation button needs JavaScript.

§ Radio — SatNOGS DB

ModeDescriptionDownlinkUplink
BPSK Mode U BPSK9k6 TLM 435.840 MHz
FM Mode V/U FM 67.0 PL 436.760 MHz 145.820 MHz

2 transmitters · refreshed weekly from db.satnogs.org